WAT1504 LROP-LRTR

Flight info

Callsign WAT1504
Flight time 0h 42m
Altitude 36000
Route SOKRU DCT OXDOC DCT NEKUL
Aircraft B737/M-SDE2E3FGHIRWXY/LB1

Departure

Time 2026-04-24 12:33
Airport Bucharest Henri Coandă International Airport (LROP)

Arrival

Time 2026-04-24 13:15
Airport Timișoara Traian Vuia International Airport (LRTR)
Time Latitude Longitude Altitude Speed Heading
2026-04-24 12:18 44.57137 26.08001 316 ft 0 kts 175°
2026-04-24 12:21 44.57143 26.08000 316 ft 4 kts 175°
2026-04-24 12:21 44.57170 26.07997 314 ft 4 kts 175°
2026-04-24 12:22 44.57193 26.07990 315 ft 4 kts 126°
2026-04-24 12:22 44.57196 26.07969 315 ft 4 kts 84°
2026-04-24 12:22 44.57194 26.07945 313 ft 0 kts 84°
2026-04-24 12:24 44.57195 26.07952 314 ft 2 kts 85°
2026-04-24 12:25 44.57197 26.07993 316 ft 8 kts 85°
2026-04-24 12:25 44.57206 26.08101 316 ft 14 kts 83°
2026-04-24 12:25 44.57218 26.08247 316 ft 15 kts 84°
2026-04-24 12:25 44.57227 26.08366 316 ft 10 kts 84°
2026-04-24 12:26 44.57239 26.08462 315 ft 10 kts 69°
2026-04-24 12:26 44.57297 26.08494 319 ft 10 kts 353°
2026-04-24 12:26 44.57364 26.08483 319 ft 10 kts 354°
2026-04-24 12:26 44.57449 26.08471 321 ft 14 kts
2026-04-24 12:27 44.57500 26.08573 322 ft 16 kts 83°
2026-04-24 12:27 44.57513 26.08741 323 ft 19 kts 84°
2026-04-24 12:27 44.57529 26.08945 319 ft 24 kts 84°
2026-04-24 12:27 44.57547 26.09192 317 ft 27 kts 83°
2026-04-24 12:28 44.57568 26.09463 317 ft 28 kts 84°
2026-04-24 12:28 44.57588 26.09726 317 ft 26 kts 84°
2026-04-24 12:28 44.57607 26.09970 322 ft 24 kts 84°
2026-04-24 12:28 44.57624 26.10198 320 ft 23 kts 84°
2026-04-24 12:29 44.57641 26.10417 319 ft 22 kts 84°
2026-04-24 12:29 44.57657 26.10633 317 ft 23 kts 84°
2026-04-24 12:29 44.57675 26.10874 312 ft 26 kts 84°
2026-04-24 12:29 44.57693 26.11121 311 ft 26 kts 84°
2026-04-24 12:30 44.57713 26.11375 310 ft 26 kts 84°
2026-04-24 12:30 44.57730 26.11614 316 ft 24 kts 84°
2026-04-24 12:30 44.57748 26.11838 318 ft 23 kts 83°
2026-04-24 12:30 44.57764 26.12055 317 ft 22 kts 84°
2026-04-24 12:31 44.57779 26.12266 317 ft 21 kts 84°
2026-04-24 12:31 44.57794 26.12476 311 ft 22 kts 84°
2026-04-24 12:31 44.57808 26.12647 309 ft 15 kts 83°
2026-04-24 12:31 44.57819 26.12790 309 ft 14 kts 81°
2026-04-24 12:32 44.57881 26.12855 309 ft 13 kts 338°
2026-04-24 12:32 44.57954 26.12786 308 ft 12 kts 323°
2026-04-24 12:32 44.57985 26.12680 310 ft 14 kts 264°
2026-04-24 12:32 44.57955 26.12280 312 ft 78 kts 264°
2026-04-24 12:33 44.57872 26.11197 317 ft 142 kts 266°
2026-04-24 12:33 44.57817 26.09671 705 ft 166 kts 266°
2026-04-24 12:33 44.57739 26.08040 1570 ft 158 kts 265°
2026-04-24 12:33 44.57622 26.06607 2656 ft 143 kts 265°
2026-04-24 12:34 44.57500 26.05140 3107 ft 166 kts 264°
2026-04-24 12:34 44.57355 26.03398 3408 ft 195 kts 264°
2026-04-24 12:34 44.57188 26.01378 3610 ft 221 kts 264°
2026-04-24 12:34 44.57003 25.99118 3842 ft 246 kts 264°
2026-04-24 12:35 44.56883 25.96644 4472 ft 257 kts 278°
2026-04-24 12:35 44.57616 25.94413 5465 ft 257 kts 311°
2026-04-24 12:35 44.58862 25.92590 6403 ft 261 kts 313°
2026-04-24 12:35 44.60147 25.90752 7345 ft 264 kts 315°
2026-04-24 12:36 44.61418 25.88939 8357 ft 265 kts 315°
2026-04-24 12:36 44.62713 25.87080 9378 ft 267 kts 316°
2026-04-24 12:36 44.64017 25.85198 10280 ft 272 kts 316°
2026-04-24 12:36 44.65396 25.83203 10631 ft 299 kts 316°
2026-04-24 12:37 44.66895 25.81025 11043 ft 318 kts 316°
2026-04-24 12:37 44.68448 25.78752 11842 ft 325 kts 316°
2026-04-24 12:37 44.70022 25.76444 12766 ft 328 kts 316°
2026-04-24 12:37 44.71608 25.74110 13721 ft 332 kts 316°
2026-04-24 12:38 44.73214 25.71745 14574 ft 335 kts 316°
2026-04-24 12:38 44.74830 25.69362 15464 ft 339 kts 316°
2026-04-24 12:38 44.76468 25.66945 16339 ft 342 kts 316°
2026-04-24 12:39 44.81462 25.59562 18812 ft 355 kts 317°
2026-04-24 12:39 44.83172 25.57030 19553 ft 359 kts 317°
2026-04-24 12:39 44.84843 25.54381 20274 ft 366 kts 310°
2026-04-24 12:40 44.86163 25.51261 20919 ft 377 kts 300°
2026-04-24 12:40 44.87111 25.47765 21610 ft 385 kts 295°
2026-04-24 12:40 44.87989 25.44173 22311 ft 389 kts 294°
2026-04-24 12:40 44.88865 25.40535 22980 ft 394 kts 294°
2026-04-24 12:41 44.89751 25.36849 23619 ft 399 kts 294°
2026-04-24 12:41 44.90643 25.33112 24167 ft 403 kts 294°
2026-04-24 12:41 44.91547 25.29353 24732 ft 406 kts 295°
2026-04-24 12:41 44.92463 25.25566 25308 ft 409 kts 295°
2026-04-24 12:42 44.93383 25.21764 26020 ft 408 kts 295°
2026-04-24 12:42 44.94280 25.18033 26768 ft 405 kts 295°
2026-04-24 12:42 44.95186 25.14272 27487 ft 405 kts 296°
2026-04-24 12:42 44.96099 25.10496 27884 ft 406 kts 296°
2026-04-24 12:43 44.97001 25.06740 27883 ft 403 kts 296°
2026-04-24 12:43 44.97904 25.02987 27910 ft 406 kts 296°
2026-04-24 12:43 44.98814 24.99211 27912 ft 406 kts 295°
2026-04-24 12:43 44.99717 24.95431 27909 ft 405 kts 295°
2026-04-24 12:44 45.00618 24.91662 27917 ft 405 kts 295°
2026-04-24 12:44 45.01518 24.87887 27920 ft 405 kts 295°
2026-04-24 12:44 45.02419 24.84118 27894 ft 405 kts 295°
2026-04-24 12:44 45.03317 24.80352 27912 ft 404 kts 295°
2026-04-24 12:45 45.04216 24.76579 27923 ft 405 kts 295°
2026-04-24 12:45 45.05111 24.72795 27924 ft 406 kts 295°
2026-04-24 12:45 45.05998 24.69056 27924 ft 406 kts 295°
2026-04-24 12:45 45.06895 24.65265 27923 ft 407 kts 295°
2026-04-24 12:46 45.07788 24.61466 27935 ft 407 kts 295°
2026-04-24 12:46 45.08681 24.57659 27932 ft 407 kts 295°
2026-04-24 12:46 45.09575 24.53851 27923 ft 407 kts 295°
2026-04-24 12:46 45.10472 24.50047 27921 ft 406 kts 295°
2026-04-24 12:47 45.11367 24.46245 27934 ft 405 kts 295°
2026-04-24 12:47 45.12256 24.42453 27924 ft 405 kts 295°
2026-04-24 12:47 45.13140 24.38661 27939 ft 405 kts 295°
2026-04-24 12:47 45.14023 24.34877 27926 ft 404 kts 295°
2026-04-24 12:48 45.14891 24.31140 27925 ft 404 kts 295°
2026-04-24 12:48 45.15764 24.27387 27937 ft 403 kts 295°
2026-04-24 12:48 45.16643 24.23612 27921 ft 403 kts 295°
2026-04-24 12:48 45.17517 24.19831 27942 ft 404 kts 295°
2026-04-24 12:49 45.18390 24.16046 27927 ft 404 kts 295°
2026-04-24 12:49 45.19264 24.12268 27910 ft 403 kts 295°
2026-04-24 12:49 45.20135 24.08498 27944 ft 402 kts 295°
2026-04-24 12:49 45.21007 24.04713 27947 ft 403 kts 295°
2026-04-24 12:50 45.21879 24.00924 27945 ft 404 kts 295°
2026-04-24 12:50 45.22750 23.97130 27941 ft 405 kts 295°
2026-04-24 12:50 45.23620 23.93326 27944 ft 405 kts 295°
2026-04-24 12:50 45.24486 23.89524 27943 ft 404 kts 294°
2026-04-24 12:51 45.25346 23.85721 27935 ft 404 kts 294°
2026-04-24 12:51 45.26194 23.81975 27953 ft 404 kts 295°
2026-04-24 12:51 45.27057 23.78183 27938 ft 403 kts 294°
2026-04-24 12:51 45.27919 23.74392 27947 ft 404 kts 295°
2026-04-24 12:52 45.28784 23.70588 27937 ft 404 kts 294°
2026-04-24 12:52 45.29647 23.66784 27938 ft 405 kts 295°
2026-04-24 12:52 45.30506 23.62981 27947 ft 405 kts 294°
2026-04-24 12:52 45.31364 23.59167 27955 ft 405 kts 294°
2026-04-24 12:53 45.32221 23.55351 27964 ft 406 kts 294°
2026-04-24 12:53 45.33076 23.51525 27965 ft 406 kts 294°
2026-04-24 12:53 45.33937 23.47691 27954 ft 407 kts 294°
2026-04-24 12:53 45.34793 23.43871 27812 ft 404 kts 294°
2026-04-24 12:54 45.35638 23.40081 27405 ft 399 kts 294°
2026-04-24 12:54 45.36466 23.36335 26953 ft 393 kts 294°
2026-04-24 12:54 45.37274 23.32649 26434 ft 389 kts 294°
2026-04-24 12:54 45.38075 23.29039 25951 ft 385 kts 294°
2026-04-24 12:55 45.38882 23.25415 25455 ft 382 kts 294°
2026-04-24 12:55 45.39682 23.21822 24983 ft 379 kts 294°
2026-04-24 12:55 45.40474 23.18254 24488 ft 377 kts 294°
2026-04-24 12:55 45.41258 23.14690 24003 ft 375 kts 294°
2026-04-24 12:56 45.42037 23.11155 23493 ft 374 kts 294°
2026-04-24 12:56 45.42809 23.07632 22908 ft 372 kts 293°
2026-04-24 12:56 45.43575 23.04127 22415 ft 368 kts 293°
2026-04-24 12:56 45.44322 23.00702 21957 ft 364 kts 293°
2026-04-24 12:57 45.45073 22.97265 21450 ft 362 kts 294°
2026-04-24 12:57 45.45825 22.93857 20982 ft 359 kts 293°
2026-04-24 12:57 45.46567 22.90471 20487 ft 357 kts 293°
2026-04-24 12:57 45.47299 22.87116 20019 ft 354 kts 292°
2026-04-24 12:58 45.48018 22.83781 19557 ft 351 kts 292°
2026-04-24 12:58 45.48736 22.80469 19096 ft 349 kts 293°
2026-04-24 12:58 45.49453 22.77172 18624 ft 347 kts 292°
2026-04-24 12:58 45.50165 22.73895 18117 ft 345 kts 292°
2026-04-24 12:59 45.50869 22.70629 17602 ft 343 kts 292°
2026-04-24 12:59 45.51560 22.67402 17119 ft 337 kts 292°
2026-04-24 12:59 45.52242 22.64233 16667 ft 332 kts 292°
2026-04-24 12:59 45.52915 22.61102 16204 ft 329 kts 292°
2026-04-24 13:00 45.53585 22.57991 15748 ft 326 kts 291°
2026-04-24 13:00 45.54247 22.54910 15288 ft 323 kts 291°
2026-04-24 13:00 45.54900 22.51857 14863 ft 320 kts 291°
2026-04-24 13:00 45.55538 22.48867 14415 ft 319 kts 291°
2026-04-24 13:01 45.56183 22.45847 13964 ft 317 kts 290°
2026-04-24 13:01 45.56824 22.42843 13485 ft 314 kts 290°
2026-04-24 13:01 45.57458 22.39862 13003 ft 313 kts 290°
2026-04-24 13:01 45.58083 22.36912 12544 ft 309 kts 290°
2026-04-24 13:02 45.58702 22.33991 12094 ft 304 kts 290°
2026-04-24 13:02 45.59310 22.31114 11661 ft 301 kts 290°
2026-04-24 13:02 45.59915 22.28262 11225 ft 299 kts 289°
2026-04-24 13:02 45.60515 22.25422 10784 ft 297 kts 289°
2026-04-24 13:03 45.61109 22.22607 10370 ft 295 kts 289°
2026-04-24 13:03 45.61689 22.19851 10237 ft 283 kts 289°
2026-04-24 13:03 45.62235 22.17234 10098 ft 273 kts 289°
2026-04-24 13:03 45.62771 22.14690 9945 ft 262 kts 289°
2026-04-24 13:04 45.63292 22.12211 9627 ft 258 kts 289°
2026-04-24 13:04 45.63801 22.09769 9314 ft 254 kts 289°
2026-04-24 13:04 45.64308 22.07354 8964 ft 253 kts 289°
2026-04-24 13:04 45.64811 22.04957 8656 ft 250 kts 289°
2026-04-24 13:05 45.65308 22.02579 8335 ft 249 kts 288°
2026-04-24 13:05 45.65802 22.00206 8009 ft 248 kts 288°
2026-04-24 13:05 45.66293 21.97852 7692 ft 247 kts 288°
2026-04-24 13:05 45.66776 21.95536 7392 ft 246 kts 288°
2026-04-24 13:06 45.67261 21.93194 7082 ft 244 kts 288°
2026-04-24 13:06 45.67745 21.90869 6773 ft 243 kts 288°
2026-04-24 13:06 45.68224 21.88552 6478 ft 242 kts 288°
2026-04-24 13:06 45.68702 21.86247 6153 ft 241 kts 288°
2026-04-24 13:07 45.69177 21.83953 5845 ft 240 kts 287°
2026-04-24 13:07 45.69642 21.81688 5525 ft 239 kts 287°
2026-04-24 13:07 45.70112 21.79412 5227 ft 238 kts 288°
2026-04-24 13:07 45.70576 21.77160 5108 ft 228 kts 288°
2026-04-24 13:08 45.71010 21.75053 5008 ft 220 kts 288°
2026-04-24 13:08 45.71439 21.72963 4907 ft 211 kts 287°
2026-04-24 13:08 45.71838 21.71014 4812 ft 202 kts 287°
2026-04-24 13:09 45.72630 21.67173 4581 ft 203 kts 287°
2026-04-24 13:09 45.73029 21.65235 4359 ft 201 kts 288°
2026-04-24 13:09 45.73498 21.63370 4191 ft 196 kts 293°
2026-04-24 13:09 45.74019 21.61577 4057 ft 199 kts 291°
2026-04-24 13:10 45.74347 21.60366 3922 ft 195 kts 291°
2026-04-24 13:10 45.74952 21.57996 3587 ft 187 kts 290°
2026-04-24 13:10 45.75381 21.56269 3347 ft 181 kts 290°
2026-04-24 13:10 45.75658 21.55153 3168 ft 178 kts 290°
2026-04-24 13:11 45.76066 21.53513 2937 ft 172 kts 290°
2026-04-24 13:11 45.76463 21.51912 2692 ft 167 kts 290°
2026-04-24 13:11 45.76839 21.50404 2513 ft 158 kts 289°
2026-04-24 13:11 45.77299 21.48546 2242 ft 138 kts 290°
2026-04-24 13:12 45.77509 21.47704 2132 ft 128 kts 291°
2026-04-24 13:12 45.77804 21.46520 1939 ft 123 kts 291°
2026-04-24 13:12 45.78093 21.45362 1771 ft 124 kts 290°
2026-04-24 13:12 45.78384 21.44192 1593 ft 125 kts 290°
2026-04-24 13:13 45.78674 21.43026 1445 ft 128 kts 290°
2026-04-24 13:13 45.78968 21.41846 1270 ft 123 kts 290°
2026-04-24 13:13 45.79252 21.40713 1092 ft 121 kts 291°
2026-04-24 13:13 45.79566 21.39567 935 ft 126 kts 292°
2026-04-24 13:14 45.79856 21.38376 755 ft 126 kts 289°
2026-04-24 13:14 45.80128 21.37207 564 ft 123 kts 290°
2026-04-24 13:14 45.80411 21.36058 396 ft 121 kts 291°
2026-04-24 13:14 45.80684 21.34979 347 ft 103 kts 290°
2026-04-24 13:15 45.80876 21.34213 338 ft 63 kts 290°
2026-04-24 13:15 45.81008 21.33682 343 ft 51 kts 290°
2026-04-24 13:15 45.81118 21.33252 340 ft 42 kts 290°
2026-04-24 13:15 45.81208 21.32885 341 ft 36 kts 290°
2026-04-24 13:16 45.81284 21.32589 343 ft 29 kts 289°
2026-04-24 13:16 45.81341 21.32355 345 ft 15 kts 289°
2026-04-24 13:16 45.81371 21.32215 342 ft 14 kts 276°
2026-04-24 13:16 45.81314 21.32124 341 ft 13 kts 198°
2026-04-24 13:17 45.81238 21.32086 339 ft 9 kts 200°
2026-04-24 13:17 45.81189 21.32060 339 ft 7 kts 200°
2026-04-24 13:17 45.81141 21.32059 339 ft 7 kts 143°
2026-04-24 13:17 45.81122 21.32123 337 ft 6 kts 110°
2026-04-24 13:18 45.81096 21.32153 339 ft 5 kts 187°
2026-04-24 13:18 45.81068 21.32140 341 ft 3 kts 199°
2026-04-24 13:18 45.81057 21.32134 341 ft 1 kts 200°